Location: Unspecified
(0.0000°N, 0.0000°E)
Time: 11:32:50
(UTC+00:00)

BEESAT - Pass Details

Date: 28 May 2019
Orbit: 700 x 709 km, 98.6° (Epoch: 18 June)

Event Time Altitude Azimuth Distance (km) Brightness Sun altitude
Rises 03:50:39 0° 145° (SE) 3,095 ? -29.2°
Reaches altitude 10° 03:53:16 10° 132° (SE) 2,176 ? -28.6°
Maximum altitude 03:57:07 25° 77° (ENE) 1,417 ? -27.8°
Drops below altitude 10° 04:00:58 10° 23° (NNE) 2,171 ? -26.9°
Sets 04:03:33 0° 10° (N) 3,087 ? -26.3°
